Time,TemperatureF,DewpointF,PressureIn,WindDirection,WindDirectionDegrees,WindSpeedMPH,WindSpeedGustMPH,Humidity,HourlyPrecipIn,Conditions,Clouds,dailyrainin,SolarRadiationWatts/m^2,SoftwareType,DateUTC
2013-06-27 00:02:00,73.9,65.5,29.66,South,175,7.0,7.0,75,0.00,,,0.00,0,Wunderground v.1.15,2013-06-27 05:02:00,
2013-06-27 00:07:00,74.0,65.2,29.67,South,169,6.0,8.0,74,0.00,,,0.00,0,Wunderground v.1.15,2013-06-27 05:07:00,
2013-06-27 00:12:00,74.0,65.2,29.67,South,169,5.0,7.0,74,0.00,,,0.00,0,Wunderground v.1.15,2013-06-27 05:12:00,
2013-06-27 00:17:00,73.6,65.2,29.67,South,169,4.0,7.0,75,0.00,,,0.00,0,Wunderground v.1.15,2013-06-27 05:17:00,
2013-06-27 00:23:00,73.1,65.1,29.67,South,169,6.0,6.0,76,0.00,,,0.00,0,Wunderground v.1.15,2013-06-27 05:23:00,
2013-06-27 00:28:00,73.1,64.7,29.67,South,172,6.0,7.0,75,0.00,,,0.00,0,Wunderground v.1.15,2013-06-27 05:28:00,
2013-06-27 00:33:00,73.4,64.6,29.67,South,174,5.0,6.0,74,0.00,,,0.00,0,Wunderground v.1.15,2013-06-27 05:33:00,
2013-06-27 00:39:00,73.6,64.4,29.67,South,180,7.0,7.0,73,0.00,,,0.00,0,Wunderground v.1.15,2013-06-27 05:39:00,
2013-06-27 00:44:00,73.6,64.4,29.67,South,180,3.0,6.0,73,0.00,,,0.00,0,Wunderground v.1.15,2013-06-27 05:44:00,
2013-06-27 00:50:00,73.1,64.3,29.67,South,179,6.0,6.0,74,0.00,,,0.00,0,Wunderground v.1.15,2013-06-27 05:50:00,
2013-06-27 00:55:00,72.7,64.3,29.67,South,179,6.0,7.0,75,0.00,,,0.00,0,Wunderground v.1.15,2013-06-27 05:55:00,
2013-06-27 01:00:00,72.6,64.2,29.68,South,179,5.0,6.0,75,0.00,,,0.00,0,Wunderground v.1.15,2013-06-27 06:00:00,
2013-06-27 01:05:00,72.6,64.2,29.68,South,179,4.0,8.0,75,0.00,,,0.00,0,Wunderground v.1.15,2013-06-27 06:05:00,
2013-06-27 01:10:00,72.7,64.3,29.68,South,179,5.0,5.0,75,0.00,,,0.00,0,Wunderground v.1.15,2013-06-27 06:10:00,
2013-06-27 01:16:00,72.6,64.2,29.68,South,180,3.0,7.0,75,0.00,,,0.00,0,Wunderground v.1.15,2013-06-27 06:16:00,
2013-06-27 01:21:00,72.3,63.9,29.68,South,180,4.0,5.0,75,0.00,,,0.00,0,Wunderground v.1.15,2013-06-27 06:21:00,
2013-06-27 01:26:00,72.0,64.0,29.69,South,184,4.0,5.0,76,0.00,,,0.00,0,Wunderground v.1.15,2013-06-27 06:26:00,
2013-06-27 01:31:00,71.7,63.7,29.69,South,184,2.0,4.0,76,0.00,,,0.00,0,Wunderground v.1.15,2013-06-27 06:31:00,
2013-06-27 01:36:00,71.4,63.4,29.69,South,183,2.0,4.0,76,0.00,,,0.00,0,Wunderground v.1.15,2013-06-27 06:36:00,
2013-06-27 01:42:00,71.0,63.4,29.69,South,183,0.0,1.0,77,0.00,,,0.00,0,Wunderground v.1.15,2013-06-27 06:42:00,
2013-06-27 01:48:00,70.4,63.2,29.69,South,184,0.0,1.0,78,0.00,,,0.00,0,Wunderground v.1.15,2013-06-27 06:48:00,
2013-06-27 01:53:00,70.2,63.4,29.69,South,183,0.0,0.0,79,0.00,,,0.00,0,Wunderground v.1.15,2013-06-27 06:53:00,
2013-06-27 01:58:00,70.0,63.5,29.69,South,184,0.0,0.0,80,0.00,,,0.00,0,Wunderground v.1.15,2013-06-27 06:58:00,
2013-06-27 02:03:00,69.8,63.3,29.69,South,183,0.0,0.0,80,0.00,,,0.00,0,Wunderground v.1.15,2013-06-27 07:03:00,
2013-06-27 02:08:00,69.7,63.3,29.69,South,183,0.0,0.0,80,0.00,,,0.00,0,Wunderground v.1.15,2013-06-27 07:08:00,
2013-06-27 02:13:00,69.7,63.6,29.69,South,184,3.0,4.0,81,0.00,,,0.00,0,Wunderground v.1.15,2013-06-27 07:13:00,
2013-06-27 02:18:00,70.4,64.3,29.69,South,184,2.0,5.0,81,0.00,,,0.00,0,Wunderground v.1.15,2013-06-27 07:18:00,
2013-06-27 02:23:00,71.1,64.3,29.69,South,183,5.0,5.0,79,0.00,,,0.00,0,Wunderground v.1.15,2013-06-27 07:23:00,
2013-06-27 02:28:00,71.5,64.3,29.69,South,184,4.0,6.0,78,0.00,,,0.00,0,Wunderground v.1.15,2013-06-27 07:28:00,
2013-06-27 02:33:00,71.8,64.2,29.69,South,184,4.0,5.0,77,0.00,,,0.00,0,Wunderground v.1.15,2013-06-27 07:33:00,
2013-06-27 02:38:00,72.0,64.0,29.69,South,185,7.0,7.0,76,0.00,,,0.00,0,Wunderground v.1.15,2013-06-27 07:38:00,
2013-06-27 02:43:00,72.1,64.1,29.69,South,185,6.0,8.0,76,0.00,,,0.00,0,Wunderground v.1.15,2013-06-27 07:43:00,
2013-06-27 02:48:00,72.1,64.1,29.69,South,185,4.0,8.0,76,0.00,,,0.00,0,Wunderground v.1.15,2013-06-27 07:48:00,
2013-06-27 02:53:00,72.2,64.2,29.69,South,185,4.0,6.0,76,0.00,,,0.00,0,Wunderground v.1.15,2013-06-27 07:53:00,
2013-06-27 02:58:00,72.0,64.0,29.69,South,185,4.0,6.0,76,0.00,,,0.00,0,Wunderground v.1.15,2013-06-27 07:58:00,
2013-06-27 03:03:00,72.0,64.4,29.69,South,185,3.0,5.0,77,0.00,,,0.00,0,Wunderground v.1.15,2013-06-27 08:03:00,
2013-06-27 03:08:00,71.7,64.5,29.69,South,185,4.0,5.0,78,0.00,,,0.00,0,Wunderground v.1.15,2013-06-27 08:08:00,
2013-06-27 03:13:00,71.5,64.3,29.69,South,185,3.0,7.0,78,0.00,,,0.00,0,Wunderground v.1.15,2013-06-27 08:13:00,
2013-06-27 03:18:00,71.6,64.0,29.69,South,185,3.0,7.0,77,0.00,,,0.00,0,Wunderground v.1.15,2013-06-27 08:18:00,
2013-06-27 03:23:00,72.0,64.4,29.69,South,185,1.0,3.0,77,0.00,,,0.00,0,Wunderground v.1.15,2013-06-27 08:23:00,
2013-06-27 03:28:00,71.9,64.3,29.69,South,185,0.0,3.0,77,0.00,,,0.00,0,Wunderground v.1.15,2013-06-27 08:28:00,
2013-06-27 03:33:00,71.7,64.1,29.69,South,185,2.0,2.0,77,0.00,,,0.00,0,Wunderground v.1.15,2013-06-27 08:33:00,
2013-06-27 03:38:00,71.3,63.7,29.69,South,185,0.0,2.0,77,0.00,,,0.00,0,Wunderground v.1.15,2013-06-27 08:38:00,
2013-06-27 03:43:00,71.2,64.0,29.69,South,185,0.0,2.0,78,0.00,,,0.00,0,Wunderground v.1.15,2013-06-27 08:43:00,
2013-06-27 03:48:00,71.0,63.8,29.69,South,185,0.0,2.0,78,0.00,,,0.00,0,Wunderground v.1.15,2013-06-27 08:48:00,
2013-06-27 03:53:00,70.5,63.7,29.69,South,185,0.0,2.0,79,0.00,,,0.00,0,Wunderground v.1.15,2013-06-27 08:53:00,
2013-06-27 03:58:00,70.1,63.3,29.69,South,185,0.0,3.0,79,0.00,,,0.00,0,Wunderground v.1.15,2013-06-27 08:58:00,
2013-06-27 04:03:00,69.7,63.6,29.70,South,185,0.0,1.0,81,0.00,,,0.00,0,Wunderground v.1.15,2013-06-27 09:03:00,
2013-06-27 04:08:00,69.5,63.4,29.70,South,185,0.0,1.0,81,0.00,,,0.00,0,Wunderground v.1.15,2013-06-27 09:08:00,
2013-06-27 04:13:00,69.4,63.7,29.70,South,185,0.0,0.0,82,0.00,,,0.00,0,Wunderground v.1.15,2013-06-27 09:13:00,
2013-06-27 04:18:00,69.2,63.8,29.70,South,185,1.0,2.0,83,0.00,,,0.00,0,Wunderground v.1.15,2013-06-27 09:18:00,
2013-06-27 04:23:00,68.9,63.5,29.69,South,185,3.0,3.0,83,0.00,,,0.00,0,Wunderground v.1.15,2013-06-27 09:23:00,
2013-06-27 04:28:00,68.7,63.7,29.70,NNW,329,6.0,8.0,84,0.00,,,0.00,0,Wunderground v.1.15,2013-06-27 09:28:00,
2013-06-27 04:33:00,68.8,63.8,29.69,NNW,329,0.0,4.0,84,0.00,,,0.00,0,Wunderground v.1.15,2013-06-27 09:33:00,
2013-06-27 04:38:00,68.9,63.9,29.70,NNW,330,3.0,6.0,84,0.00,,,0.00,0,Wunderground v.1.15,2013-06-27 09:38:00,
2013-06-27 04:44:00,69.0,64.0,29.69,NNW,330,1.0,2.0,84,0.00,,,0.00,0,Wunderground v.1.15,2013-06-27 09:44:00,
2013-06-27 04:49:00,69.2,64.2,29.69,NNW,330,2.0,5.0,84,0.00,,,0.00,0,Wunderground v.1.15,2013-06-27 09:49:00,
2013-06-27 04:54:00,69.5,64.1,29.69,NNW,330,3.0,5.0,83,0.00,,,0.00,0,Wunderground v.1.15,2013-06-27 09:54:00,
2013-06-27 04:59:00,69.8,64.4,29.70,NNW,333,6.0,7.0,83,0.00,,,0.00,0,Wunderground v.1.15,2013-06-27 09:59:00,
2013-06-27 05:04:00,69.8,64.4,29.70,North,349,5.0,8.0,83,0.00,,,0.00,0,Wunderground v.1.15,2013-06-27 10:04:00,
2013-06-27 05:09:00,70.0,64.2,29.70,North,350,2.0,8.0,82,0.00,,,0.00,0,Wunderground v.1.15,2013-06-27 10:09:00,
2013-06-27 05:14:00,70.1,64.7,29.69,North,350,2.0,4.0,83,0.00,,,0.00,0,Wunderground v.1.15,2013-06-27 10:14:00,
2013-06-27 05:19:00,70.0,64.6,29.70,North,350,3.0,4.0,83,0.00,,,0.00,0,Wunderground v.1.15,2013-06-27 10:19:00,
2013-06-27 05:24:00,69.7,64.3,29.70,North,350,4.0,5.0,83,0.00,,,0.00,0,Wunderground v.1.15,2013-06-27 10:24:00,
2013-06-27 05:29:00,69.6,64.2,29.71,North,350,2.0,6.0,83,0.00,,,0.00,0,Wunderground v.1.15,2013-06-27 10:29:00,
2013-06-27 05:34:00,69.8,64.7,29.71,North,350,0.0,3.0,84,0.00,,,0.00,0,Wunderground v.1.15,2013-06-27 10:34:00,
2013-06-27 05:39:00,69.9,64.5,29.71,North,350,4.0,6.0,83,0.00,,,0.00,0,Wunderground v.1.15,2013-06-27 10:39:00,
2013-06-27 05:44:00,70.0,64.6,29.72,North,360,8.0,8.0,83,0.00,,,0.00,0,Wunderground v.1.15,2013-06-27 10:44:00,
2013-06-27 05:49:00,70.2,64.8,29.71,NNE,23,4.0,9.0,83,0.00,,,0.00,0,Wunderground v.1.15,2013-06-27 10:49:00,
2013-06-27 05:54:00,70.4,64.6,29.72,NNE,23,3.0,5.0,82,0.00,,,0.00,0,Wunderground v.1.15,2013-06-27 10:54:00,
2013-06-27 05:59:00,70.6,64.8,29.73,NNE,23,0.0,5.0,82,0.00,,,0.00,0,Wunderground v.1.15,2013-06-27 10:59:00,
2013-06-27 06:04:00,70.6,65.2,29.70,ESE,103,10.0,10.0,83,0.26,,,0.02,0,Wunderground v.1.15,2013-06-27 11:04:00,
2013-06-27 06:09:00,69.8,64.7,29.69,ENE,59,8.0,12.0,84,0.14,,,0.04,0,Wunderground v.1.15,2013-06-27 11:09:00,
2013-06-27 06:14:00,69.9,64.8,29.70,NE,51,5.0,8.0,84,0.10,,,0.04,0,Wunderground v.1.15,2013-06-27 11:14:00,
2013-06-27 06:19:00,70.1,65.0,29.71,NNE,30,5.0,11.0,84,0.08,,,0.05,0,Wunderground v.1.15,2013-06-27 11:19:00,
2013-06-27 06:24:00,69.9,64.8,29.71,NNE,23,0.0,7.0,84,0.07,,,0.05,5,Wunderground v.1.15,2013-06-27 11:24:00,
2013-06-27 06:29:00,69.6,64.9,29.71,NNE,23,3.0,7.0,85,0.05,,,0.05,7,Wunderground v.1.15,2013-06-27 11:29:00,
2013-06-27 06:34:00,69.5,65.1,29.70,NNE,30,5.0,6.0,86,0.00,,,0.05,7,Wunderground v.1.15,2013-06-27 11:34:00,
2013-06-27 06:39:00,69.3,64.9,29.70,NE,42,6.0,6.0,86,0.00,,,0.05,11,Wunderground v.1.15,2013-06-27 11:39:00,
2013-06-27 06:44:00,69.2,64.8,29.71,NNE,28,2.0,7.0,86,0.00,,,0.05,14,Wunderground v.1.15,2013-06-27 11:44:00,
2013-06-27 06:49:00,69.1,64.7,29.71,NE,37,3.0,7.0,86,0.00,,,0.06,23,Wunderground v.1.15,2013-06-27 11:49:00,
2013-06-27 06:54:00,69.0,65.0,29.71,NE,42,4.0,6.0,87,0.00,,,0.06,25,Wunderground v.1.15,2013-06-27 11:54:00,
2013-06-27 06:59:00,69.2,65.2,29.72,NE,50,2.0,8.0,87,0.00,,,0.06,18,Wunderground v.1.15,2013-06-27 11:59:00,
2013-06-27 07:04:00,69.3,65.3,29.72,NE,35,5.0,7.0,87,0.00,,,0.06,18,Wunderground v.1.15,2013-06-27 12:04:00,
2013-06-27 07:09:00,69.3,65.3,29.74,North,360,5.0,8.0,87,0.00,,,0.06,16,Wunderground v.1.15,2013-06-27 12:09:00,
2013-06-27 07:14:00,69.2,65.2,29.73,NNE,28,1.0,7.0,87,0.00,,,0.06,28,Wunderground v.1.15,2013-06-27 12:14:00,
2013-06-27 07:19:00,69.4,65.4,29.73,East,92,6.0,8.0,87,0.00,,,0.06,60,Wunderground v.1.15,2013-06-27 12:19:00,
2013-06-27 07:24:00,69.6,65.6,29.73,ESE,115,4.0,10.0,87,0.00,,,0.06,74,Wunderground v.1.15,2013-06-27 12:24:00,
2013-06-27 07:29:00,69.6,65.6,29.73,East,98,11.0,16.0,87,0.00,,,0.07,67,Wunderground v.1.15,2013-06-27 12:29:00,
2013-06-27 07:34:00,69.6,65.6,29.74,NE,49,6.0,14.0,87,0.00,,,0.07,25,Wunderground v.1.15,2013-06-27 12:34:00,
2013-06-27 07:39:00,69.6,65.6,29.75,East,79,10.0,14.0,87,0.00,,,0.07,12,Wunderground v.1.15,2013-06-27 12:39:00,
2013-06-27 07:44:00,69.4,65.4,29.72,East,83,10.0,14.0,87,0.00,,,0.07,9,Wunderground v.1.15,2013-06-27 12:44:00,
2013-06-27 07:50:00,69.0,65.0,29.72,East,93,10.0,10.0,87,0.00,,,0.08,9,Wunderground v.1.15,2013-06-27 12:50:00,
2013-06-27 07:55:00,68.6,64.9,29.73,ENE,67,8.0,10.0,88,0.00,,,0.08,7,Wunderground v.1.15,2013-06-27 12:55:00,
2013-06-27 08:00:00,68.6,64.9,29.74,NNE,32,10.0,10.0,88,0.00,,,0.08,5,Wunderground v.1.15,2013-06-27 13:00:00,
2013-06-27 08:05:00,68.6,64.9,29.75,ENE,60,7.0,10.0,88,0.00,,,0.08,12,Wunderground v.1.15,2013-06-27 13:05:00,
2013-06-27 08:10:00,68.6,64.9,29.74,ENE,73,7.0,7.0,88,0.00,,,0.09,21,Wunderground v.1.15,2013-06-27 13:10:00,
2013-06-27 08:15:00,68.8,65.1,29.74,East,89,14.0,14.0,88,0.00,,,0.09,25,Wunderground v.1.15,2013-06-27 13:15:00,
2013-06-27 08:20:00,69.0,65.6,29.74,East,90,11.0,11.0,89,0.00,,,0.09,18,Wunderground v.1.15,2013-06-27 13:20:00,
2013-06-27 08:25:00,68.8,65.4,29.74,ENE,76,8.0,13.0,89,0.00,,,0.09,23,Wunderground v.1.15,2013-06-27 13:25:00,
2013-06-27 08:30:00,68.8,65.4,29.74,East,83,9.0,10.0,89,0.00,,,0.09,33,Wunderground v.1.15,2013-06-27 13:30:00,
2013-06-27 08:35:00,68.8,65.4,29.74,NE,51,10.0,10.0,89,0.00,,,0.10,37,Wunderground v.1.15,2013-06-27 13:35:00,
2013-06-27 08:40:00,68.9,65.2,29.74,ENE,57,9.0,12.0,88,0.00,,,0.10,28,Wunderground v.1.15,2013-06-27 13:40:00,
2013-06-27 08:45:00,69.1,65.4,29.74,ENE,68,8.0,12.0,88,0.00,,,0.10,42,Wunderground v.1.15,2013-06-27 13:45:00,
2013-06-27 08:50:00,69.2,65.5,29.74,NE,52,4.0,7.0,88,0.00,,,0.10,70,Wunderground v.1.15,2013-06-27 13:50:00,
2013-06-27 08:55:00,69.3,65.6,29.75,NE,50,5.0,9.0,88,0.00,,,0.10,163,Wunderground v.1.15,2013-06-27 13:55:00,
2013-06-27 09:00:00,70.0,66.3,29.75,NE,42,3.0,6.0,88,0.00,,,0.11,355,Wunderground v.1.15,2013-06-27 14:00:00,
2013-06-27 09:05:00,70.6,66.9,29.75,NNE,23,6.0,7.0,88,0.00,,,0.11,192,Wunderground v.1.15,2013-06-27 14:05:00,
2013-06-27 09:10:00,70.6,66.9,29.76,NNE,13,7.0,9.0,88,0.00,,,0.11,434,Wunderground v.1.15,2013-06-27 14:10:00,
2013-06-27 09:15:00,71.0,67.3,29.76,NNE,29,6.0,13.0,88,0.00,,,0.11,257,Wunderground v.1.15,2013-06-27 14:15:00,
2013-06-27 09:20:00,71.7,68.0,29.77,ENE,63,8.0,11.0,88,0.00,,,0.11,476,Wunderground v.1.15,2013-06-27 14:20:00,
2013-06-27 09:25:00,72.0,67.9,29.77,NNE,14,9.0,16.0,87,0.00,,,0.11,427,Wunderground v.1.15,2013-06-27 14:25:00,
2013-06-27 09:30:00,72.6,68.2,29.77,ENE,63,13.0,14.0,86,0.00,,,0.11,343,Wunderground v.1.15,2013-06-27 14:30:00,
2013-06-27 09:36:00,72.2,67.1,29.78,NE,36,13.0,17.0,84,0.00,,,0.11,253,Wunderground v.1.15,2013-06-27 14:36:00,
2013-06-27 09:41:00,71.9,66.8,29.78,ENE,73,11.0,12.0,84,0.00,,,0.11,253,Wunderground v.1.15,2013-06-27 14:41:00,
2013-06-27 09:46:00,72.0,66.6,29.78,ENE,74,8.0,14.0,83,0.00,,,0.11,227,Wunderground v.1.15,2013-06-27 14:46:00,
2013-06-27 09:51:00,72.3,66.8,29.78,ENE,65,7.0,10.0,83,0.00,,,0.11,294,Wunderground v.1.15,2013-06-27 14:51:00,
2013-06-27 09:56:00,72.8,67.3,29.78,ENE,61,11.0,14.0,83,0.00,,,0.11,448,Wunderground v.1.15,2013-06-27 14:56:00,
2013-06-27 10:01:00,73.1,66.9,29.78,NE,53,9.0,17.0,81,0.00,,,0.11,482,Wunderground v.1.15,2013-06-27 15:01:00,
2013-06-27 10:06:00,73.0,66.5,29.78,NNE,32,13.0,17.0,80,0.00,,,0.11,271,Wunderground v.1.15,2013-06-27 15:06:00,
2013-06-27 10:11:00,72.4,65.9,29.78,NE,49,10.0,18.0,80,0.00,,,0.11,480,Wunderground v.1.15,2013-06-27 15:11:00,
2013-06-27 10:16:00,72.5,66.3,29.78,NE,55,10.0,18.0,81,0.00,,,0.11,657,Wunderground v.1.15,2013-06-27 15:16:00,
2013-06-27 10:21:00,73.0,67.2,29.78,ENE,62,14.0,21.0,82,0.00,,,0.11,666,Wunderground v.1.15,2013-06-27 15:21:00,
2013-06-27 10:26:00,72.9,66.0,29.79,ENE,57,13.0,21.0,79,0.00,,,0.11,675,Wunderground v.1.15,2013-06-27 15:26:00,
2013-06-27 10:31:00,73.1,65.8,29.78,NNE,27,7.0,12.0,78,0.00,,,0.11,689,Wunderground v.1.15,2013-06-27 15:31:00,
2013-06-27 10:36:00,73.6,65.2,29.79,NE,44,12.0,19.0,75,0.00,,,0.11,707,Wunderground v.1.15,2013-06-27 15:36:00,
2013-06-27 10:41:00,74.1,65.3,29.79,North,11,8.0,14.0,74,0.00,,,0.11,722,Wunderground v.1.15,2013-06-27 15:41:00,
2013-06-27 10:46:00,74.6,65.4,29.78,ENE,69,11.0,21.0,73,0.00,,,0.11,731,Wunderground v.1.15,2013-06-27 15:46:00,
2013-06-27 10:51:00,74.8,64.8,29.79,NE,49,13.0,20.0,71,0.00,,,0.11,749,Wunderground v.1.15,2013-06-27 15:51:00,
2013-06-27 10:56:00,75.1,65.1,29.79,East,90,14.0,20.0,71,0.00,,,0.11,761,Wunderground v.1.15,2013-06-27 15:56:00,
2013-06-27 11:01:00,75.3,65.2,29.79,NE,38,9.0,16.0,71,0.00,,,0.11,789,Wunderground v.1.15,2013-06-27 16:01:00,
2013-06-27 11:06:00,75.7,65.6,29.79,NE,52,13.0,18.0,71,0.00,,,0.11,777,Wunderground v.1.15,2013-06-27 16:06:00,
2013-06-27 11:11:00,76.1,66.0,29.80,ENE,57,14.0,16.0,71,0.00,,,0.11,814,Wunderground v.1.15,2013-06-27 16:11:00,
2013-06-27 11:16:00,76.5,66.4,29.80,NE,35,6.0,17.0,71,0.00,,,0.11,856,Wunderground v.1.15,2013-06-27 16:16:00,
2013-06-27 11:21:00,76.7,65.8,29.80,NE,34,11.0,17.0,69,0.00,,,0.11,851,Wunderground v.1.15,2013-06-27 16:21:00,
2013-06-27 11:26:00,76.8,65.0,29.80,North,5,13.0,19.0,67,0.00,,,0.11,860,Wunderground v.1.15,2013-06-27 16:26:00,
2013-06-27 11:31:00,76.7,64.0,29.80,ENE,67,5.0,20.0,65,0.00,,,0.11,916,Wunderground v.1.15,2013-06-27 16:31:00,
2013-06-27 11:36:00,76.3,65.0,29.80,NNE,33,6.0,20.0,68,0.00,,,0.11,476,Wunderground v.1.15,2013-06-27 16:36:00,
2013-06-27 11:41:00,76.2,64.4,29.81,NNE,20,8.0,11.0,67,0.00,,,0.11,538,Wunderground v.1.15,2013-06-27 16:41:00,
2013-06-27 11:46:00,76.3,64.1,29.80,NE,51,7.0,16.0,66,0.00,,,0.11,489,Wunderground v.1.15,2013-06-27 16:46:00,
2013-06-27 12:05:00,76.8,65.9,29.80,ENE,63,10.0,14.0,69,0.00,,,0.11,1027,Wunderground v.1.15,2013-06-27 17:05:00,
2013-06-27 12:10:00,77.1,65.3,29.80,East,81,8.0,8.0,67,0.00,,,0.11,434,Wunderground v.1.15,2013-06-27 17:10:00,
2013-06-27 12:15:00,77.1,64.0,29.79,ENE,70,7.0,16.0,64,0.00,,,0.11,809,Wunderground v.1.15,2013-06-27 17:15:00,
2013-06-27 12:20:00,78.0,65.7,29.79,ESE,107,9.0,12.0,66,0.00,,,0.11,1113,Wunderground v.1.15,2013-06-27 17:20:00,
2013-06-27 12:25:00,78.8,66.5,29.80,East,91,10.0,13.0,66,0.00,,,0.11,1179,Wunderground v.1.15,2013-06-27 17:25:00,
2013-06-27 12:30:00,78.6,64.9,29.80,ESE,110,7.0,9.0,63,0.00,,,0.11,462,Wunderground v.1.15,2013-06-27 17:30:00,
2013-06-27 12:35:00,78.4,64.8,29.80,East,84,10.0,13.0,63,0.00,,,0.11,534,Wunderground v.1.15,2013-06-27 17:35:00,
2013-06-27 12:41:00,78.7,65.0,29.80,East,98,7.0,10.0,63,0.00,,,0.11,580,Wunderground v.1.15,2013-06-27 17:41:00,
2013-06-27 12:46:00,79.2,66.4,29.80,East,89,3.0,10.0,65,0.00,,,0.11,663,Wunderground v.1.15,2013-06-27 17:46:00,
2013-06-27 12:51:00,79.5,65.8,29.80,ENE,78,4.0,9.0,63,0.00,,,0.11,517,Wunderground v.1.15,2013-06-27 17:51:00,
2013-06-27 12:56:00,79.5,65.8,29.80,ESE,102,4.0,9.0,63,0.00,,,0.11,527,Wunderground v.1.15,2013-06-27 17:56:00,
2013-06-27 13:01:00,79.7,65.5,29.80,East,83,7.0,8.0,62,0.00,,,0.11,476,Wunderground v.1.15,2013-06-27 18:01:00,
2013-06-27 13:06:00,80.4,65.7,29.80,ESE,109,2.0,8.0,61,0.00,,,0.11,1174,Wunderground v.1.15,2013-06-27 18:06:00,
2013-06-27 13:11:00,81.0,66.8,29.80,East,100,9.0,9.0,62,0.00,,,0.11,1092,Wunderground v.1.15,2013-06-27 18:11:00,
2013-06-27 13:16:00,81.0,65.8,29.80,East,91,7.0,9.0,60,0.00,,,0.11,740,Wunderground v.1.15,2013-06-27 18:16:00,
2013-06-27 13:20:00,81.3,65.6,29.80,SE,128,5.0,6.0,59,0.00,,,0.11,1009,Wunderground v.1.15,2013-06-27 18:20:00,
2013-06-27 13:26:00,81.9,66.2,29.80,SE,128,4.0,8.0,59,0.00,,,0.11,1020,Wunderground v.1.15,2013-06-27 18:26:00,
2013-06-27 13:31:00,82.1,66.8,29.80,East,92,5.0,7.0,60,0.00,,,0.11,1021,Wunderground v.1.15,2013-06-27 18:31:00,
2013-06-27 13:36:00,82.3,64.5,29.80,East,82,2.0,9.0,55,0.00,,,0.11,1011,Wunderground v.1.15,2013-06-27 18:36:00,
2013-06-27 13:41:00,82.6,65.8,29.80,SE,133,0.0,5.0,57,0.00,,,0.11,995,Wunderground v.1.15,2013-06-27 18:41:00,
2013-06-27 13:46:00,82.9,67.1,29.80,East,92,5.0,7.0,59,0.00,,,0.11,974,Wunderground v.1.15,2013-06-27 18:46:00,
2013-06-27 13:51:00,83.3,68.0,29.80,ESE,109,2.0,5.0,60,0.00,,,0.11,970,Wunderground v.1.15,2013-06-27 18:51:00,
2013-06-27 13:56:00,83.2,65.9,29.80,East,85,3.0,6.0,56,0.00,,,0.11,972,Wunderground v.1.15,2013-06-27 18:56:00,
2013-06-27 14:01:00,83.3,66.0,29.80,ENE,65,1.0,3.0,56,0.00,,,0.11,972,Wunderground v.1.15,2013-06-27 19:01:00,
2013-06-27 14:06:00,83.4,66.1,29.80,East,82,1.0,5.0,56,0.00,,,0.11,970,Wunderground v.1.15,2013-06-27 19:06:00,
2013-06-27 14:11:00,83.8,67.4,29.80,East,89,0.0,1.0,58,0.00,,,0.11,969,Wunderground v.1.15,2013-06-27 19:11:00,
2013-06-27 14:16:00,84.1,66.2,29.80,NNE,22,5.0,5.0,55,0.00,,,0.11,963,Wunderground v.1.15,2013-06-27 19:16:00,
2013-06-27 14:21:00,84.4,65.9,29.80,NNE,13,1.0,2.0,54,0.00,,,0.11,960,Wunderground v.1.15,2013-06-27 19:21:00,
2013-06-27 14:26:00,84.8,66.8,29.80,NNE,30,5.0,7.0,55,0.00,,,0.11,960,Wunderground v.1.15,2013-06-27 19:26:00,
2013-06-27 14:31:00,84.8,65.2,29.80,NNE,30,3.0,7.0,52,0.00,,,0.11,953,Wunderground v.1.15,2013-06-27 19:31:00,
2013-06-27 14:36:00,84.7,64.6,29.79,NNE,27,4.0,8.0,51,0.00,,,0.11,951,Wunderground v.1.15,2013-06-27 19:36:00,
2013-06-27 14:41:00,84.9,65.3,29.79,NNE,29,1.0,5.0,52,0.00,,,0.11,944,Wunderground v.1.15,2013-06-27 19:41:00,
2013-06-27 14:46:00,85.2,65.0,29.79,North,5,3.0,10.0,51,0.00,,,0.11,942,Wunderground v.1.15,2013-06-27 19:46:00,
2013-06-27 14:51:00,85.2,66.1,29.79,North,5,1.0,4.0,53,0.00,,,0.11,933,Wunderground v.1.15,2013-06-27 19:51:00,
2013-06-27 14:56:00,85.3,65.7,29.79,NE,35,1.0,5.0,52,0.00,,,0.11,932,Wunderground v.1.15,2013-06-27 19:56:00,
2013-06-27 15:01:00,85.3,66.8,29.79,NE,47,2.0,3.0,54,0.00,,,0.11,916,Wunderground v.1.15,2013-06-27 20:01:00,
2013-06-27 15:06:00,85.2,66.1,29.80,ENE,63,3.0,7.0,53,0.00,,,0.11,921,Wunderground v.1.15,2013-06-27 20:06:00,
2013-06-27 15:11:00,85.0,65.4,29.80,NE,41,1.0,6.0,52,0.00,,,0.11,926,Wunderground v.1.15,2013-06-27 20:11:00,
2013-06-27 15:15:00,84.9,65.9,29.80,ENE,61,5.0,9.0,53,0.00,,,0.11,912,Wunderground v.1.15,2013-06-27 20:15:00,
2013-06-27 15:20:00,84.8,65.8,29.80,ENE,69,3.0,8.0,53,0.00,,,0.11,898,Wunderground v.1.15,2013-06-27 20:20:00,
2013-06-27 15:25:00,84.7,66.2,29.80,ENE,69,3.0,8.0,54,0.00,,,0.11,900,Wunderground v.1.15,2013-06-27 20:25:00,
2013-06-27 15:31:00,85.1,66.0,29.80,ENE,69,3.0,3.0,53,0.00,,,0.11,889,Wunderground v.1.15,2013-06-27 20:31:00,
2013-06-27 15:36:00,85.8,68.3,29.79,NE,35,7.0,10.0,56,0.00,,,0.11,888,Wunderground v.1.15,2013-06-27 20:36:00,
2013-06-27 15:41:00,85.3,67.8,29.79,NE,48,4.0,6.0,56,0.00,,,0.11,867,Wunderground v.1.15,2013-06-27 20:41:00,
2013-06-27 15:46:00,85.3,68.8,29.79,East,82,9.0,9.0,58,0.00,,,0.11,858,Wunderground v.1.15,2013-06-27 20:46:00,
2013-06-27 15:51:00,85.0,67.5,29.79,East,79,7.0,9.0,56,0.00,,,0.11,853,Wunderground v.1.15,2013-06-27 20:51:00,
2013-06-27 15:57:00,84.9,69.0,29.79,ENE,69,4.0,9.0,59,0.00,,,0.11,854,Wunderground v.1.15,2013-06-27 20:57:00,
2013-06-27 16:02:00,85.2,67.2,29.79,NE,40,2.0,6.0,55,0.00,,,0.11,831,Wunderground v.1.15,2013-06-27 21:02:00,
2013-06-27 16:07:00,85.7,67.1,29.79,NE,50,3.0,6.0,54,0.00,,,0.11,835,Wunderground v.1.15,2013-06-27 21:07:00,
2013-06-27 16:12:00,85.7,67.1,29.79,NE,40,4.0,5.0,54,0.00,,,0.11,828,Wunderground v.1.15,2013-06-27 21:12:00,
2013-06-27 16:17:00,85.9,68.4,29.79,NE,37,0.0,5.0,56,0.00,,,0.11,816,Wunderground v.1.15,2013-06-27 21:17:00,
2013-06-27 16:22:00,86.1,65.3,29.79,NE,38,2.0,4.0,50,0.00,,,0.11,810,Wunderground v.1.15,2013-06-27 21:22:00,
2013-06-27 16:28:00,85.8,65.6,29.79,ENE,59,2.0,4.0,51,0.00,,,0.11,796,Wunderground v.1.15,2013-06-27 21:28:00,
2013-06-27 16:33:00,85.7,66.6,29.79,NE,44,4.0,9.0,53,0.00,,,0.11,782,Wunderground v.1.15,2013-06-27 21:33:00,
2013-06-27 16:38:00,85.6,67.0,29.79,ESE,104,5.0,9.0,54,0.00,,,0.11,768,Wunderground v.1.15,2013-06-27 21:38:00,
2013-06-27 16:43:00,85.3,68.8,29.78,ESE,105,5.0,8.0,58,0.00,,,0.11,758,Wunderground v.1.15,2013-06-27 21:43:00,
2013-06-27 16:48:00,85.1,68.2,29.78,East,94,7.0,8.0,57,0.00,,,0.11,817,Wunderground v.1.15,2013-06-27 21:48:00,
2013-06-27 16:53:00,85.2,67.2,29.78,ESE,105,4.0,9.0,55,0.00,,,0.11,770,Wunderground v.1.15,2013-06-27 21:53:00,
2013-06-27 16:58:00,85.3,68.3,29.78,East,90,3.0,10.0,57,0.00,,,0.11,721,Wunderground v.1.15,2013-06-27 21:58:00,
2013-06-27 17:03:00,85.0,67.5,29.78,East,88,0.0,7.0,56,0.00,,,0.11,703,Wunderground v.1.15,2013-06-27 22:03:00,
2013-06-27 17:09:00,85.4,67.9,29.78,NE,42,5.0,7.0,56,0.00,,,0.11,691,Wunderground v.1.15,2013-06-27 22:09:00,
2013-06-27 17:14:00,85.7,67.7,29.78,NE,42,3.0,5.0,55,0.00,,,0.11,701,Wunderground v.1.15,2013-06-27 22:14:00,
2013-06-27 17:19:00,85.7,67.7,29.78,NE,42,5.0,6.0,55,0.00,,,0.11,139,Wunderground v.1.15,2013-06-27 22:19:00,
2013-06-27 17:24:00,85.8,68.3,29.78,NE,38,5.0,7.0,56,0.00,,,0.11,675,Wunderground v.1.15,2013-06-27 22:24:00,
2013-06-27 17:30:00,86.3,67.7,29.77,NE,36,3.0,7.0,54,0.00,,,0.11,638,Wunderground v.1.15,2013-06-27 22:30:00,
2013-06-27 17:35:00,86.5,67.3,29.77,North,360,0.0,6.0,53,0.00,,,0.11,610,Wunderground v.1.15,2013-06-27 22:35:00,
2013-06-27 17:40:00,86.8,67.1,29.77,North,350,4.0,7.0,52,0.00,,,0.11,596,Wunderground v.1.15,2013-06-27 22:40:00,
2013-06-27 17:45:00,86.9,64.2,29.77,NNW,348,1.0,5.0,47,0.00,,,0.11,578,Wunderground v.1.15,2013-06-27 22:45:00,
2013-06-27 17:51:00,86.6,65.2,29.77,NNW,348,5.0,5.0,49,0.00,,,0.11,570,Wunderground v.1.15,2013-06-27 22:51:00,
2013-06-27 17:56:00,86.5,62.0,29.77,NNW,346,4.0,9.0,44,0.00,,,0.11,552,Wunderground v.1.15,2013-06-27 22:56:00,
2013-06-27 18:01:00,86.6,62.7,29.77,NNW,336,4.0,7.0,45,0.00,,,0.11,536,Wunderground v.1.15,2013-06-27 23:01:00,
2013-06-27 18:06:00,86.6,64.0,29.77,NNW,336,1.0,7.0,47,0.00,,,0.11,520,Wunderground v.1.15,2013-06-27 23:06:00,
2013-06-27 18:11:00,86.4,60.6,29.77,NNW,334,2.0,4.0,42,0.00,,,0.11,506,Wunderground v.1.15,2013-06-27 23:11:00,
2013-06-27 18:17:00,86.4,63.2,29.77,NNW,334,3.0,6.0,46,0.00,,,0.11,489,Wunderground v.1.15,2013-06-27 23:17:00,
2013-06-27 18:22:00,86.3,61.2,29.77,NNW,329,5.0,6.0,43,0.00,,,0.11,473,Wunderground v.1.15,2013-06-27 23:22:00,
2013-06-27 18:27:00,86.4,62.5,29.77,NNW,337,6.0,7.0,45,0.00,,,0.11,457,Wunderground v.1.15,2013-06-27 23:27:00,
2013-06-27 18:32:00,86.5,62.6,29.77,NNW,334,2.0,4.0,45,0.00,,,0.11,441,Wunderground v.1.15,2013-06-27 23:32:00,
2013-06-27 18:38:00,86.4,63.2,29.77,North,355,3.0,6.0,46,0.00,,,0.11,420,Wunderground v.1.15,2013-06-27 23:38:00,
2013-06-27 18:43:00,86.3,61.8,29.77,NNW,341,5.0,7.0,44,0.00,,,0.11,404,Wunderground v.1.15,2013-06-27 23:43:00,
2013-06-27 18:48:00,86.0,62.2,29.77,NNW,344,3.0,7.0,45,0.00,,,0.11,392,Wunderground v.1.15,2013-06-27 23:48:00,
2013-06-27 18:53:00,85.7,61.9,29.77,NNW,348,4.0,6.0,45,0.00,,,0.11,373,Wunderground v.1.15,2013-06-27 23:53:00,
2013-06-27 18:58:00,85.5,62.4,29.77,NNW,344,5.0,6.0,46,0.00,,,0.11,357,Wunderground v.1.15,2013-06-27 23:58:00,
2013-06-27 19:04:00,85.3,61.6,29.77,NNW,341,4.0,5.0,45,0.00,,,0.11,341,Wunderground v.1.15,2013-06-28 00:04:00,
2013-06-27 19:09:00,85.3,63.4,29.77,NNW,342,2.0,5.0,48,0.00,,,0.11,325,Wunderground v.1.15,2013-06-28 00:09:00,
2013-06-27 19:14:00,85.5,63.0,29.77,NNW,342,2.0,5.0,47,0.00,,,0.11,309,Wunderground v.1.15,2013-06-28 00:14:00,
2013-06-27 19:19:00,85.5,63.6,29.77,North,355,2.0,8.0,48,0.00,,,0.11,292,Wunderground v.1.15,2013-06-28 00:19:00,
2013-06-27 19:24:00,85.2,63.9,29.77,North,355,1.0,3.0,49,0.00,,,0.11,279,Wunderground v.1.15,2013-06-28 00:24:00,
2013-06-27 19:29:00,85.1,63.8,29.77,North,355,5.0,7.0,49,0.00,,,0.11,262,Wunderground v.1.15,2013-06-28 00:29:00,
2013-06-27 19:34:00,84.8,62.9,29.77,North,355,2.0,4.0,48,0.00,,,0.11,250,Wunderground v.1.15,2013-06-28 00:34:00,
2013-06-27 19:39:00,84.6,63.3,29.77,North,355,0.0,4.0,49,0.00,,,0.11,230,Wunderground v.1.15,2013-06-28 00:39:00,
2013-06-27 19:44:00,84.7,63.4,29.77,North,355,0.0,5.0,49,0.00,,,0.11,204,Wunderground v.1.15,2013-06-28 00:44:00,
2013-06-27 19:49:00,84.9,64.2,29.77,North,355,0.0,5.0,50,0.00,,,0.11,192,Wunderground v.1.15,2013-06-28 00:49:00,
2013-06-27 19:55:00,84.7,62.8,29.77,North,355,1.0,3.0,48,0.00,,,0.11,158,Wunderground v.1.15,2013-06-28 00:55:00,
2013-06-27 20:00:00,84.2,63.5,29.77,North,355,0.0,1.0,50,0.00,,,0.11,26,Wunderground v.1.15,2013-06-28 01:00:00,
2013-06-27 20:06:00,83.6,63.0,29.77,North,355,0.0,2.0,50,0.00,,,0.11,25,Wunderground v.1.15,2013-06-28 01:06:00,
2013-06-27 20:11:00,82.9,62.9,29.77,North,355,0.0,0.0,51,0.00,,,0.11,23,Wunderground v.1.15,2013-06-28 01:11:00,
2013-06-27 20:16:00,82.3,63.5,29.78,North,355,0.0,1.0,53,0.00,,,0.11,23,Wunderground v.1.15,2013-06-28 01:16:00,
2013-06-27 20:22:00,81.8,64.6,29.78,North,355,1.0,1.0,56,0.00,,,0.11,25,Wunderground v.1.15,2013-06-28 01:22:00,
2013-06-27 20:27:00,81.5,65.3,29.77,North,355,0.0,1.0,58,0.00,,,0.11,21,Wunderground v.1.15,2013-06-28 01:27:00,
2013-06-27 20:32:00,80.9,63.7,29.77,North,355,0.0,0.0,56,0.00,,,0.11,26,Wunderground v.1.15,2013-06-28 01:32:00,
2013-06-27 20:37:00,80.5,64.4,29.77,North,355,0.0,1.0,58,0.00,,,0.11,18,Wunderground v.1.15,2013-06-28 01:37:00,
2013-06-27 20:42:00,80.1,66.8,29.77,North,355,0.0,0.0,64,0.00,,,0.11,16,Wunderground v.1.15,2013-06-28 01:42:00,
2013-06-27 20:47:00,79.7,67.8,29.77,North,355,0.0,0.0,67,0.00,,,0.11,14,Wunderground v.1.15,2013-06-28 01:47:00,
2013-06-27 20:52:00,79.1,67.2,29.76,North,355,0.0,0.0,67,0.00,,,0.11,12,Wunderground v.1.15,2013-06-28 01:52:00,
2013-06-27 20:57:00,78.4,65.7,29.76,North,355,0.0,0.0,65,0.00,,,0.11,11,Wunderground v.1.15,2013-06-28 01:57:00,
2013-06-27 21:02:00,77.9,65.6,29.76,North,355,0.0,0.0,66,0.00,,,0.11,9,Wunderground v.1.15,2013-06-28 02:02:00,
2013-06-27 21:08:00,77.3,65.5,29.76,North,355,0.0,0.0,67,0.00,,,0.11,5,Wunderground v.1.15,2013-06-28 02:08:00,
2013-06-27 21:13:00,76.9,66.0,29.76,North,355,0.0,0.0,69,0.00,,,0.11,0,Wunderground v.1.15,2013-06-28 02:13:00,
2013-06-27 21:18:00,76.4,67.1,29.76,North,355,0.0,0.0,73,0.00,,,0.11,0,Wunderground v.1.15,2013-06-28 02:18:00,
2013-06-27 21:23:00,75.9,66.6,29.76,North,355,0.0,0.0,73,0.00,,,0.11,0,Wunderground v.1.15,2013-06-28 02:23:00,
2013-06-27 21:29:00,75.5,66.2,29.76,North,355,0.0,0.0,73,0.00,,,0.11,0,Wunderground v.1.15,2013-06-28 02:29:00,
2013-06-27 21:33:00,75.2,66.3,29.76,North,355,0.0,0.0,74,0.00,,,0.11,0,Wunderground v.1.15,2013-06-28 02:33:00,
2013-06-27 21:38:00,75.0,66.9,29.76,North,355,0.0,0.0,76,0.00,,,0.11,0,Wunderground v.1.15,2013-06-28 02:38:00,
2013-06-27 21:44:00,74.8,67.8,29.76,North,355,0.0,0.0,79,0.00,,,0.11,0,Wunderground v.1.15,2013-06-28 02:44:00,
2013-06-27 21:49:00,74.3,67.7,29.76,North,355,0.0,0.0,80,0.00,,,0.11,0,Wunderground v.1.15,2013-06-28 02:49:00,
2013-06-27 21:54:00,73.8,67.6,29.77,North,355,0.0,0.0,81,0.00,,,0.11,0,Wunderground v.1.15,2013-06-28 02:54:00,
2013-06-27 22:00:00,73.3,67.1,29.77,North,355,0.0,0.0,81,0.00,,,0.11,0,Wunderground v.1.15,2013-06-28 03:00:00,
2013-06-27 22:05:00,73.2,67.4,29.77,North,355,0.0,0.0,82,0.00,,,0.11,0,Wunderground v.1.15,2013-06-28 03:05:00,
2013-06-27 22:11:00,72.8,67.3,29.77,North,355,0.0,0.0,83,0.00,,,0.11,0,Wunderground v.1.15,2013-06-28 03:11:00,
2013-06-27 22:16:00,72.3,66.5,29.77,North,355,0.0,0.0,82,0.00,,,0.11,0,Wunderground v.1.15,2013-06-28 03:16:00,
2013-06-27 22:21:00,72.0,66.2,29.78,North,355,0.0,0.0,82,0.00,,,0.11,0,Wunderground v.1.15,2013-06-28 03:21:00,
2013-06-27 22:26:00,71.9,66.5,29.78,North,355,0.0,0.0,83,0.00,,,0.11,0,Wunderground v.1.15,2013-06-28 03:26:00,
2013-06-27 22:31:00,71.7,66.6,29.79,North,355,0.0,0.0,84,0.00,,,0.11,0,Wunderground v.1.15,2013-06-28 03:31:00,
2013-06-27 22:36:00,71.3,66.2,29.79,North,355,0.0,1.0,84,0.00,,,0.11,0,Wunderground v.1.15,2013-06-28 03:36:00,
2013-06-27 22:42:00,70.7,65.3,29.79,North,355,0.0,1.0,83,0.00,,,0.11,0,Wunderground v.1.15,2013-06-28 03:42:00,
2013-06-27 22:47:00,70.5,65.4,29.79,North,355,0.0,1.0,84,0.00,,,0.11,0,Wunderground v.1.15,2013-06-28 03:47:00,
2013-06-27 22:52:00,70.2,65.1,29.79,North,355,1.0,1.0,84,0.00,,,0.11,0,Wunderground v.1.15,2013-06-28 03:52:00,
2013-06-27 22:58:00,70.2,65.1,29.80,North,355,0.0,2.0,84,0.00,,,0.11,0,Wunderground v.1.15,2013-06-28 03:58:00,
2013-06-27 23:01:00,70.1,65.4,29.80,North,355,0.0,1.0,85,0.00,,,0.11,0,Wunderground v.1.15,2013-06-28 04:01:00,
2013-06-27 23:06:00,69.9,64.8,29.80,North,355,0.0,1.0,84,0.00,,,0.11,0,Wunderground v.1.15,2013-06-28 04:06:00,
2013-06-27 23:11:00,69.7,64.6,29.80,North,355,0.0,0.0,84,0.00,,,0.11,0,Wunderground v.1.15,2013-06-28 04:11:00,
2013-06-27 23:16:00,69.5,64.5,29.80,North,355,0.0,1.0,84,0.00,,,0.11,0,Wunderground v.1.15,2013-06-28 04:16:00,
2013-06-27 23:21:00,69.3,64.6,29.80,North,355,1.0,2.0,85,0.00,,,0.11,0,Wunderground v.1.15,2013-06-28 04:21:00,
2013-06-27 23:26:00,69.0,64.3,29.80,North,355,0.0,2.0,85,0.00,,,0.11,0,Wunderground v.1.15,2013-06-28 04:26:00,
2013-06-27 23:31:00,68.7,64.0,29.80,North,355,3.0,3.0,85,0.00,,,0.11,0,Wunderground v.1.15,2013-06-28 04:31:00,
2013-06-27 23:36:00,68.5,64.1,29.80,North,355,4.0,4.0,86,0.00,,,0.11,0,Wunderground v.1.15,2013-06-28 04:36:00,
2013-06-27 23:41:00,68.5,64.1,29.81,NNW,345,3.0,4.0,86,0.00,,,0.11,0,Wunderground v.1.15,2013-06-28 04:41:00,
2013-06-27 23:46:00,68.6,64.2,29.81,NNW,329,4.0,5.0,86,0.00,,,0.11,0,Wunderground v.1.15,2013-06-28 04:46:00,
2013-06-27 23:51:00,68.6,64.2,29.81,NNW,329,1.0,3.0,86,0.00,,,0.11,0,Wunderground v.1.15,2013-06-28 04:51:00,
2013-06-27 23:56:00,68.7,64.3,29.81,NNW,328,4.0,4.0,86,0.00,,,0.11,0,Wunderground v.1.15,2013-06-28 04:56:00,